Powrót do katalogu

FENGYUN 1C DEB

AktywnySSO
NORAD 30114·DEBRIS·🇨🇳 China

Wystrzelony May 10, 1999 z Taiyuan Satellite Launch Center

Loading…

Następne Przeloty (najbliższe 24 godziny)

TLE

ŚwieżeSource: Space-Track

Epoka: Sep 14, 2026, 18:21 UTC

1 30114U 99025RT  26257.76502509  .00000219  00000-0  14421-3 0  9997
2 30114  98.7548 257.5151 0082180  59.4106 115.8219 14.09834129 10438

Śledź FENGYUN 1C DEB w czasie rzeczywistym z AllMySat

Download on the App Store